Weather History for Marysville, OH

Change the Weather History Date:

Thursday, February 21, 2013

  Actual Average (KDLZ) Record (KDLZ)
Temperature  
Mean Temperature 22 °F -  
Max Temperature 26 °F 40 °F 64 °F (1937)
Min Temperature 20 °F 21 °F -6 °F (1978)
Degree Days  
Heating Degree Days 42    
Moisture  
Dew Point 15 °F    
Average Humidity 73    
Maximum Humidity 83    
Minimum Humidity 69    
Precipitation  
Precipitation 0.00 in - - ()
Sea Level Pressure  
Sea Level Pressure 30.26 in    
Wind  
Wind Speed 7 mph (NE)    
Max Wind Speed 14 mph    
Max Gust Speed -    
Visibility 10 miles    
Events      
Averages and records for this station are not official NWS values.
T = Trace of Precipitation, MM = Missing Value Source: NWS Daily Summary

Daily Weather History Graph

Daily Weather History Graph

Search for Another Location

Airport:

Trip Planner

Search our weather history database for the weather conditions in past years. The results will help you decide how hot, cold, wet, or windy it might be!

Date:

Astronomy

Feb. 21, 2013 Rise Set
Actual Time 7:18 AM EST 6:16 PM EST
Civil Twilight 6:50 AM EST 6:43 PM EST
Nautical Twilight 6:19 AM EST 7:15 PM EST
Astronomical Twilight 5:47 AM EST 7:46 PM EST
Moon 2:30 PM EST (2/21) 4:22 AM EST (2/21)
Length of Visible Light 11h 53m
Length of Day
10h 58m
Waxing Gibbous, 83% of the Moon is Illuminated
Feb 21
Waxing Gibbous
Feb 25
Full
Mar 4
Last Quarter
Mar 11
New
Mar 19
First Quarter

Hourly Weather History & Observations

Time (EST) Temp. Windchill Dew Point Humidity Pressure Visibility Wind Dir Wind Speed Gust Speed Precip Events Conditions
12:13 AM 20.3 °F 11.5 °F 15.8 °F 83% 30.23 in 10.0 mi WNW 6.9 mph - N/A   Overcast
12:34 AM 20.3 °F 11.5 °F 16.0 °F 83% 30.23 in 10.0 mi WNW 6.9 mph - N/A   Overcast
12:54 AM 20.7 °F 13.0 °F 15.8 °F 81% 30.24 in 10.0 mi NW 5.8 mph - N/A   Overcast
1:13 AM 20.8 °F 13.2 °F 15.8 °F 81% 30.24 in 10.0 mi NW 5.8 mph - N/A   Overcast
1:34 AM 21.2 °F 9.5 °F 14.4 °F 75% 30.25 in 10.0 mi NW 11.5 mph - N/A   Overcast
1:54 AM 21.0 °F 11.4 °F 13.6 °F 73% 30.25 in 10.0 mi North 8.1 mph - N/A   Overcast
2:13 AM 20.8 °F 10.4 °F 13.3 °F 73% 30.25 in 10.0 mi North 9.2 mph - N/A   Overcast
2:34 AM 20.5 °F 10.8 °F 13.6 °F 75% 30.25 in 10.0 mi North 8.1 mph - N/A   Overcast
2:54 AM 20.3 °F 10.6 °F 13.6 °F 75% 30.25 in 10.0 mi North 8.1 mph - N/A   Overcast
3:13 AM 20.3 °F 11.5 °F 13.5 °F 75% 30.26 in 10.0 mi North 6.9 mph - N/A   Overcast
3:34 AM 20.3 °F 10.6 °F 12.0 °F 70% 30.26 in 10.0 mi North 8.1 mph - N/A   Overcast
3:54 AM 20.3 °F 9.8 °F 13.1 °F 74% 30.26 in 10.0 mi NNW 9.2 mph - N/A   Overcast
4:13 AM 20.3 °F 10.6 °F 12.7 °F 73% 30.25 in 10.0 mi North 8.1 mph - N/A   Overcast
4:34 AM 20.3 °F 10.6 °F 12.4 °F 71% 30.26 in 10.0 mi NNW 8.1 mph - N/A   Overcast
4:54 AM 20.3 °F 9.8 °F 12.4 °F 71% 30.26 in 10.0 mi NNW 9.2 mph - N/A   Overcast
5:13 AM 20.3 °F 11.5 °F 12.7 °F 73% 30.26 in 10.0 mi NNW 6.9 mph - N/A   Overcast
5:34 AM 20.3 °F 12.5 °F 12.9 °F 73% 30.27 in 10.0 mi NNW 5.8 mph - N/A   Overcast
5:54 AM 20.3 °F 12.5 °F 13.1 °F 74% 30.28 in 10.0 mi NNW 5.8 mph - N/A   Overcast
6:13 AM 20.5 °F 11.7 °F 13.1 °F 73% 30.28 in 10.0 mi North 6.9 mph - N/A   Overcast
6:54 AM 20.7 °F 11.0 °F 13.5 °F 74% 30.29 in 10.0 mi North 8.1 mph - N/A   Overcast
7:13 AM 20.7 °F 11.9 °F 13.6 °F 74% 30.30 in 10.0 mi North 6.9 mph - N/A   Overcast
7:34 AM 20.8 °F 13.2 °F 14.0 °F 75% 30.30 in 10.0 mi NNW 5.8 mph - N/A   Overcast
7:54 AM 20.8 °F 10.4 °F 13.6 °F 74% 30.31 in 10.0 mi North 9.2 mph - N/A   Overcast
8:13 AM 21.0 °F 13.4 °F 14.0 °F 74% 30.31 in 10.0 mi North 5.8 mph - N/A   Overcast
8:34 AM 21.2 °F 13.6 °F 14.5 °F 75% 30.31 in 10.0 mi North 5.8 mph - N/A   Overcast
8:54 AM 21.2 °F 16.4 °F 14.4 °F 75% 30.31 in 10.0 mi North 3.5 mph - N/A   Overcast
9:13 AM 21.4 °F 15.1 °F 14.5 °F 75% 30.32 in 10.0 mi NNW 4.6 mph - N/A   Overcast
9:34 AM 21.6 °F 13.0 °F 14.2 °F 73% 30.32 in 10.0 mi NE 6.9 mph - N/A   Overcast
9:54 AM 21.9 °F 14.5 °F 14.7 °F 74% 30.32 in 10.0 mi NNE 5.8 mph - N/A   Overcast
10:13 AM 21.7 °F - 14.0 °F 72% 30.33 in 10.0 mi Calm Calm - N/A   Overcast
10:34 AM 22.1 °F 14.7 °F 14.9 °F 74% 30.33 in 10.0 mi ENE 5.8 mph - N/A   Overcast
10:54 AM 22.1 °F 13.7 °F 14.4 °F 72% 30.33 in 10.0 mi NE 6.9 mph - N/A   Overcast
11:13 AM 22.5 °F 17.8 °F 14.5 °F 72% 30.32 in 10.0 mi NE 3.5 mph - N/A   Overcast
11:34 AM 22.6 °F 15.3 °F 14.4 °F 71% 30.33 in 10.0 mi North 5.8 mph - N/A   Overcast
11:54 AM 23.0 °F 18.4 °F 14.9 °F 71% 30.33 in 10.0 mi ENE 3.5 mph - N/A   Overcast
12:14 PM 23.0 °F - 15.1 °F 72% 30.32 in 10.0 mi Calm Calm - N/A   Overcast
12:34 PM 23.5 °F 19.1 °F 15.4 °F 71% 30.32 in 10.0 mi NE 3.5 mph - N/A   Overcast
1:14 PM 23.9 °F 15.8 °F 16.0 °F 72% 30.29 in 10.0 mi ENE 6.9 mph - N/A   Overcast
1:34 PM 24.3 °F 17.3 °F 16.2 °F 71% 30.28 in 10.0 mi ENE 5.8 mph - N/A   Overcast
1:54 PM 23.9 °F 14.2 °F 15.4 °F 70% 30.27 in 10.0 mi ENE 9.2 mph - N/A   Overcast
2:14 PM 24.4 °F 15.6 °F 15.8 °F 70% 30.26 in 10.0 mi ENE 8.1 mph - N/A   Overcast
2:34 PM 25.3 °F 16.7 °F 16.3 °F 69% 30.25 in 10.0 mi East 8.1 mph - N/A   Overcast
2:54 PM 25.7 °F 16.4 °F 17.4 °F 71% 30.23 in 10.0 mi ENE 9.2 mph - N/A   Overcast
3:14 PM 25.5 °F 15.5 °F 16.9 °F 70% 30.24 in 10.0 mi East 10.4 mph - N/A   Overcast
3:34 PM 25.7 °F 14.0 °F 17.8 °F 72% 30.22 in 10.0 mi ENE 13.8 mph - N/A   Overcast
3:54 PM 25.3 °F 15.3 °F 17.6 °F 72% 30.24 in 10.0 mi East 10.4 mph - N/A   Overcast
4:14 PM 25.2 °F 18.3 °F 16.7 °F 70% 30.26 in 10.0 mi ESE 5.8 mph - N/A   Overcast
4:34 PM 24.8 °F 16.1 °F 16.5 °F 71% 30.25 in 10.0 mi East 8.1 mph - N/A   Overcast
4:54 PM 25.2 °F 15.7 °F 16.5 °F 70% 30.25 in 10.0 mi East 9.2 mph - N/A   Overcast
5:14 PM 25.5 °F 16.2 °F 17.2 °F 71% 30.26 in 10.0 mi East 9.2 mph - N/A   Overcast
5:33 PM 25.5 °F 16.9 °F 16.9 °F 70% 30.26 in 10.0 mi East 8.1 mph - N/A   Overcast
5:54 PM 25.7 °F 18.0 °F 16.9 °F 69% 30.26 in 10.0 mi East 6.9 mph - N/A   Overcast
6:14 PM 25.5 °F 17.8 °F 17.1 °F 70% 30.27 in 10.0 mi ESE 6.9 mph - N/A   Mostly Cloudy
6:33 PM 25.3 °F 16.0 °F 17.6 °F 72% 30.25 in 10.0 mi East 9.2 mph - N/A   Mostly Cloudy
7:14 PM 24.8 °F 16.1 °F 17.4 °F 74% 30.25 in 10.0 mi East 8.1 mph - N/A   Clear
7:33 PM 24.8 °F 15.3 °F 17.4 °F 74% 30.24 in 10.0 mi East 9.2 mph - N/A   Clear
7:54 PM 24.8 °F 16.1 °F 17.4 °F 74% 30.25 in 10.0 mi East 8.1 mph - N/A   Clear
8:14 PM 24.8 °F 14.6 °F 17.6 °F 74% 30.23 in 10.0 mi East 10.4 mph - N/A   Clear
8:33 PM 24.8 °F 14.0 °F 17.4 °F 74% 30.21 in 10.0 mi East 11.5 mph - N/A   Clear
8:54 PM 24.6 °F 14.4 °F 17.6 °F 75% 30.21 in 10.0 mi East 10.4 mph - N/A   Clear
9:14 PM 24.6 °F 13.2 °F 17.4 °F 74% 30.20 in 10.0 mi East 12.7 mph - N/A   Clear
9:33 PM 24.4 °F 13.0 °F 16.9 °F 73% 30.20 in 10.0 mi ESE 12.7 mph - N/A   Clear
9:54 PM 24.4 °F 14.9 °F 16.3 °F 71% 30.21 in 10.0 mi ESE 9.2 mph - N/A   Clear
10:14 PM 24.4 °F 20.1 °F 16.3 °F 71% 30.22 in 10.0 mi SE 3.5 mph - N/A   Clear
10:33 PM 24.4 °F 17.5 °F 16.7 °F 72% 30.21 in 10.0 mi ESE 5.8 mph - N/A   Clear
10:54 PM 24.6 °F 17.7 °F 16.5 °F 71% 30.20 in 10.0 mi ESE 5.8 mph - N/A   Clear
11:14 PM 24.6 °F 15.8 °F 16.5 °F 71% 30.19 in 10.0 mi ESE 8.1 mph - N/A   Scattered Clouds
11:33 PM 24.6 °F 17.7 °F 16.9 °F 72% 30.18 in 10.0 mi ESE 5.8 mph - N/A   Mostly Cloudy
11:54 PM 24.8 °F 15.3 °F 16.7 °F 71% 30.16 in 10.0 mi ESE 9.2 mph - N/A   Overcast